BAW721 LTFM-EGLL

Flight info

Callsign BAW721
Flight time N/A
Altitude 36000
Route TUDBU1D/35L TUDBU Q26 ETUBA DCT NAVOD DCT INVED DCT BEGLA/N0444F380 DCT DEXIT DCT INBED DCT BOMBI DCT ADKUV DCT BUB L608 LOGAN LOGAN2H
Aircraft A21N/M-SDE3FGHIJ1LRWXYZ/SB1G1

Departure

Time 2026-05-06 11:48
Airport İstanbul Airport (LTFM)

Arrival

Time N/A
Airport London Heathrow Airport (EGLL)
Time Latitude Longitude Altitude Speed Heading
2026-05-06 11:31 41.26626 28.73467 339 ft 0 kts 70°
2026-05-06 11:33 41.26626 28.73466 339 ft 0 kts 70°
2026-05-06 11:37 41.26626 28.73465 339 ft 0 kts 70°
2026-05-06 11:39 41.26624 28.73460 336 ft 3 kts 70°
2026-05-06 11:39 41.26615 28.73426 336 ft 4 kts 71°
2026-05-06 11:40 41.26608 28.73392 335 ft 4 kts 79°
2026-05-06 11:40 41.26607 28.73358 339 ft 4 kts 114°
2026-05-06 11:40 41.26615 28.73346 334 ft 1 kts 161°
2026-05-06 11:42 41.26615 28.73345 334 ft 0 kts 161°
2026-05-06 11:44 41.26600 28.73313 338 ft 6 kts 261°
2026-05-06 11:44 41.26594 28.73243 338 ft 9 kts 264°
2026-05-06 11:44 41.26584 28.73151 337 ft 11 kts 243°
2026-05-06 11:44 41.26512 28.73114 337 ft 13 kts 178°
2026-05-06 11:45 41.26414 28.73114 339 ft 15 kts 180°
2026-05-06 11:45 41.26326 28.73106 338 ft 12 kts 206°
2026-05-06 11:45 41.26300 28.73041 339 ft 1 kts 262°
2026-05-06 11:45 41.26291 28.73029 337 ft 3 kts 220°
2026-05-06 11:46 41.26246 28.73004 339 ft 9 kts 208°
2026-05-06 11:46 41.26228 28.72983 339 ft 2 kts 228°
2026-05-06 11:46 41.26218 28.72913 336 ft 11 kts 264°
2026-05-06 11:46 41.26208 28.72793 336 ft 15 kts 265°
2026-05-06 11:47 41.26211 28.72634 337 ft 19 kts 270°
2026-05-06 11:47 41.26240 28.72533 337 ft 6 kts 342°
2026-05-06 11:47 41.26304 28.72523 338 ft 18 kts 356°
2026-05-06 11:47 41.26674 28.72516 338 ft 87 kts
2026-05-06 11:48 41.27473 28.72502 339 ft 141 kts
2026-05-06 11:48 41.28581 28.72461 467 ft 170 kts 360°
2026-05-06 11:48 41.29738 28.72444 1065 ft 168 kts
2026-05-06 11:48 41.30924 28.72453 1661 ft 176 kts 360°
2026-05-06 11:49 41.32206 28.72453 2115 ft 192 kts
2026-05-06 11:49 41.33631 28.72474 2555 ft 221 kts 360°
2026-05-06 11:49 41.35266 28.72489 3051 ft 246 kts 359°
2026-05-06 11:49 41.37019 28.72503 3815 ft 254 kts 358°
2026-05-06 11:50 41.38768 28.72198 4501 ft 256 kts 341°
2026-05-06 11:50 41.40404 28.71258 4844 ft 255 kts 333°
2026-05-06 11:50 41.41991 28.70208 4952 ft 255 kts 333°
2026-05-06 11:50 41.43579 28.69161 5394 ft 256 kts 334°
2026-05-06 11:51 41.45193 28.68110 6331 ft 259 kts 334°
2026-05-06 11:51 41.46822 28.67057 7249 ft 261 kts 335°
2026-05-06 11:51 41.48413 28.66032 8126 ft 264 kts 335°
2026-05-06 11:51 41.50075 28.64965 9077 ft 267 kts 335°
2026-05-06 11:52 41.51759 28.63887 10018 ft 270 kts 335°
2026-05-06 11:52 41.53508 28.62767 10531 ft 289 kts 335°
2026-05-06 11:52 41.55398 28.61556 10852 ft 313 kts 335°
2026-05-06 11:52 41.57341 28.60128 11257 ft 331 kts 326°
2026-05-06 11:53 41.59058 28.58037 11999 ft 338 kts 315°
2026-05-06 11:53 41.60658 28.55688 12807 ft 343 kts 314°
2026-05-06 11:53 41.62260 28.53299 13586 ft 347 kts 314°
2026-05-06 11:53 41.63889 28.50884 14324 ft 352 kts 314°
2026-05-06 11:54 41.65538 28.48450 15027 ft 355 kts 314°
2026-05-06 11:54 41.67106 28.45869 15730 ft 361 kts 306°
2026-05-06 11:54 41.68270 28.42861 16434 ft 367 kts 297°
2026-05-06 11:54 41.69290 28.39715 17124 ft 371 kts 296°
2026-05-06 11:55 41.70310 28.36525 17774 ft 375 kts 296°
2026-05-06 11:55 41.71346 28.33307 18414 ft 378 kts 296°
2026-05-06 11:55 41.72396 28.30064 18980 ft 381 kts 296°
2026-05-06 11:55 41.73460 28.26796 19555 ft 384 kts 296°
2026-05-06 11:56 41.74528 28.23513 20123 ft 386 kts 296°
2026-05-06 11:56 41.75603 28.20206 20705 ft 389 kts 296°
2026-05-06 11:56 41.76687 28.16871 21260 ft 391 kts 296°
2026-05-06 11:56 41.77776 28.13519 21833 ft 394 kts 296°
2026-05-06 11:57 41.78884 28.10146 22401 ft 396 kts 297°
2026-05-06 11:57 41.80266 28.06953 22961 ft 397 kts 307°
2026-05-06 11:57 41.81908 28.03973 23500 ft 400 kts 308°
2026-05-06 11:57 41.83578 28.01031 23974 ft 403 kts 308°
2026-05-06 11:58 41.85279 27.98026 24441 ft 405 kts 308°
2026-05-06 11:58 41.86982 27.95000 24913 ft 408 kts 308°
2026-05-06 11:58 41.88693 27.91955 25371 ft 410 kts 308°
2026-05-06 11:58 41.90413 27.88886 25826 ft 412 kts 308°
2026-05-06 11:59 41.92137 27.85802 26279 ft 414 kts 308°
2026-05-06 11:59 41.93869 27.82698 26715 ft 416 kts 308°
2026-05-06 11:59 41.95607 27.79586 27175 ft 417 kts 309°
2026-05-06 11:59 41.97473 27.76593 27602 ft 417 kts 315°
2026-05-06 12:00 41.99497 27.73796 28010 ft 419 kts 316°
2026-05-06 12:00 42.01546 27.70998 28418 ft 421 kts 316°
2026-05-06 12:00 42.03608 27.68183 28809 ft 423 kts 316°
2026-05-06 12:00 42.05679 27.65352 29183 ft 425 kts 316°
2026-05-06 12:01 42.07754 27.62516 29571 ft 427 kts 316°
2026-05-06 12:01 42.09835 27.59663 30088 ft 424 kts 316°
2026-05-06 12:01 42.11894 27.56838 30567 ft 421 kts 316°
2026-05-06 12:01 42.13939 27.54028 31013 ft 419 kts 316°
2026-05-06 12:02 42.15957 27.51249 31350 ft 419 kts 316°
2026-05-06 12:02 42.17998 27.48430 31701 ft 419 kts 316°
2026-05-06 12:02 42.20032 27.45625 32110 ft 418 kts 316°
2026-05-06 12:02 42.22067 27.42816 32515 ft 416 kts 316°
2026-05-06 12:03 42.24086 27.40027 32899 ft 415 kts 316°
2026-05-06 12:03 42.26099 27.37245 33259 ft 414 kts 316°
2026-05-06 12:03 42.28110 27.34460 33624 ft 413 kts 316°
2026-05-06 12:03 42.30114 27.31686 33984 ft 412 kts 316°
2026-05-06 12:04 42.32114 27.28910 34276 ft 411 kts 316°
2026-05-06 12:04 42.34109 27.26141 34506 ft 412 kts 316°
2026-05-06 12:04 42.36104 27.23367 34734 ft 412 kts 316°
2026-05-06 12:04 42.38106 27.20580 34942 ft 413 kts 315°
2026-05-06 12:05 42.40079 27.17830 35151 ft 413 kts 315°
2026-05-06 12:05 42.42086 27.15032 35328 ft 413 kts 315°
2026-05-06 12:05 42.44093 27.12233 35521 ft 414 kts 315°
2026-05-06 12:05 42.46101 27.09428 35721 ft 415 kts 315°
2026-05-06 12:06 42.48113 27.06617 35922 ft 415 kts 315°
2026-05-06 12:06 42.50120 27.03806 36084 ft 416 kts 315°
2026-05-06 12:06 42.54138 26.98178 36092 ft 415 kts 315°
2026-05-06 12:07 42.58149 26.92543 36064 ft 415 kts 315°
2026-05-06 12:07 42.62155 26.86899 36068 ft 415 kts 315°
2026-05-06 12:08 42.66161 26.81253 36065 ft 415 kts 315°
2026-05-06 12:08 42.70165 26.75592 36061 ft 415 kts 315°
2026-05-06 12:09 42.74161 26.69939 36052 ft 414 kts 315°
2026-05-06 12:09 42.78155 26.64277 36055 ft 415 kts 315°
2026-05-06 12:10 42.81979 26.58452 36050 ft 416 kts 307°
2026-05-06 12:10 42.85174 26.51844 36044 ft 417 kts 304°
2026-05-06 12:11 42.88319 26.45195 36032 ft 417 kts 304°
2026-05-06 12:11 42.91473 26.38547 36043 ft 417 kts 305°
2026-05-06 12:12 42.94628 26.31901 36034 ft 417 kts 305°
2026-05-06 12:12 42.97777 26.25250 36032 ft 417 kts 305°
2026-05-06 12:13 43.00930 26.18584 36009 ft 417 kts 305°
2026-05-06 12:13 43.04053 26.11962 36012 ft 414 kts 305°
2026-05-06 12:14 43.07169 26.05341 36015 ft 414 kts 304°
2026-05-06 12:14 43.10256 25.98758 36006 ft 414 kts 304°
2026-05-06 12:15 43.13365 25.92111 36015 ft 414 kts 304°
2026-05-06 12:15 43.16472 25.85460 35997 ft 414 kts 304°
2026-05-06 12:16 43.19569 25.78813 35994 ft 414 kts 304°
2026-05-06 12:16 43.22658 25.72156 35995 ft 414 kts 304°
2026-05-06 12:17 43.25747 25.65502 35996 ft 413 kts 304°
2026-05-06 12:17 43.28828 25.58836 35996 ft 413 kts 304°
2026-05-06 12:18 43.31908 25.52167 35999 ft 413 kts 304°
2026-05-06 12:18 43.34966 25.45534 36001 ft 413 kts 304°
2026-05-06 12:19 43.38041 25.38843 36002 ft 414 kts 304°
2026-05-06 12:19 43.41103 25.32175 35989 ft 410 kts 304°
2026-05-06 12:20 43.44147 25.25544 35996 ft 410 kts 304°
2026-05-06 12:20 43.47180 25.18901 35999 ft 410 kts 304°
2026-05-06 12:21 43.50196 25.12291 36004 ft 410 kts 304°
2026-05-06 12:21 43.53218 25.05639 36004 ft 408 kts 304°
2026-05-06 12:22 43.56226 24.98996 36004 ft 409 kts 304°
2026-05-06 12:22 43.58732 24.93458 36001 ft 410 kts 304°
2026-05-06 12:23 43.61749 24.86788 36007 ft 409 kts 304°
2026-05-06 12:23 43.64759 24.80110 35993 ft 409 kts 304°
2026-05-06 12:24 43.67753 24.73453 36008 ft 408 kts 304°
2026-05-06 12:24 43.70740 24.66785 36005 ft 408 kts 303°
2026-05-06 12:25 43.73725 24.60118 36009 ft 408 kts 304°
2026-05-06 12:25 43.76962 24.53704 36007 ft 406 kts 311°
2026-05-06 12:26 43.80639 24.47775 35998 ft 405 kts 312°
2026-05-06 12:26 43.84298 24.41885 36005 ft 405 kts 311°
2026-05-06 12:27 43.87953 24.35929 36002 ft 405 kts 311°
2026-05-06 12:27 43.91615 24.29972 36009 ft 406 kts 311°
2026-05-06 12:28 43.95282 24.24008 35998 ft 407 kts 311°
2026-05-06 12:28 43.98949 24.18028 36000 ft 407 kts 311°
2026-05-06 12:29 44.02615 24.12040 35999 ft 407 kts 311°
2026-05-06 12:29 44.06259 24.06077 36000 ft 407 kts 311°
2026-05-06 12:30 44.09924 24.00073 35990 ft 407 kts 310°
2026-05-06 12:30 44.13586 23.94042 35996 ft 408 kts 310°
2026-05-06 12:31 44.17253 23.87996 35994 ft 408 kts 310°
2026-05-06 12:31 44.20913 23.81948 35994 ft 408 kts 310°
2026-05-06 12:32 44.24568 23.75890 35993 ft 408 kts 310°
2026-05-06 12:32 44.28231 23.69816 35989 ft 409 kts 310°
2026-05-06 12:33 44.31893 23.63737 36013 ft 409 kts 310°
2026-05-06 12:33 44.35554 23.57638 36008 ft 409 kts 310°
2026-05-06 12:34 44.39208 23.51534 36000 ft 409 kts 310°
2026-05-06 12:34 44.42876 23.45438 35989 ft 410 kts 309°
2026-05-06 12:35 44.46546 23.39320 35988 ft 410 kts 309°
2026-05-06 12:35 44.50199 23.33192 35986 ft 410 kts 309°
2026-05-06 12:36 44.53824 23.27088 35988 ft 410 kts 309°
2026-05-06 12:36 44.57468 23.20934 35993 ft 410 kts 309°
2026-05-06 12:37 44.61108 23.14753 35984 ft 410 kts 309°
2026-05-06 12:37 44.64748 23.08573 35981 ft 410 kts 309°
2026-05-06 12:38 44.68384 23.02395 35982 ft 410 kts 309°
2026-05-06 12:38 44.72021 22.96201 35980 ft 410 kts 308°
2026-05-06 12:39 44.75649 22.90013 35980 ft 410 kts 308°
2026-05-06 12:39 44.79281 22.83810 35981 ft 410 kts 309°
2026-05-06 12:40 44.82916 22.77614 35983 ft 410 kts 309°
2026-05-06 12:40 44.86516 22.71438 35987 ft 410 kts 308°
2026-05-06 12:41 44.90144 22.65210 35989 ft 411 kts 308°
2026-05-06 12:41 44.93763 22.58974 35991 ft 411 kts 308°
2026-05-06 12:42 44.97370 22.52722 35990 ft 411 kts 308°
2026-05-06 12:42 45.00990 22.46470 35990 ft 411 kts 308°
2026-05-06 12:43 45.04609 22.40190 35991 ft 411 kts 308°
2026-05-06 12:43 45.08217 22.33918 35994 ft 410 kts 307°
2026-05-06 12:44 45.11808 22.27659 35984 ft 409 kts 307°
2026-05-06 12:44 45.15393 22.21394 35988 ft 409 kts 307°
2026-05-06 12:45 45.18954 22.15162 35983 ft 410 kts 307°
2026-05-06 12:46 45.24336 22.05705 35988 ft 410 kts 307°
2026-05-06 12:46 45.27921 21.99401 35982 ft 410 kts 307°
2026-05-06 12:47 45.31494 21.93096 35981 ft 410 kts 307°
2026-05-06 12:47 45.35064 21.86778 35974 ft 410 kts 307°
2026-05-06 12:48 45.38636 21.80457 35980 ft 410 kts 306°
2026-05-06 12:48 45.42188 21.74145 35973 ft 408 kts 306°
2026-05-06 12:49 45.45713 21.67858 35968 ft 408 kts 306°
2026-05-06 12:49 45.49257 21.61535 35969 ft 408 kts 306°
2026-05-06 12:50 45.52803 21.55200 35980 ft 409 kts 306°
2026-05-06 12:50 45.56347 21.48817 35967 ft 410 kts 305°
2026-05-06 12:51 45.59892 21.42437 35967 ft 410 kts 305°
2026-05-06 12:51 45.63436 21.36053 35961 ft 410 kts 305°
2026-05-06 12:52 45.66974 21.29666 35963 ft 410 kts 305°
2026-05-06 12:52 45.70491 21.23309 35959 ft 410 kts 305°
2026-05-06 12:53 45.74013 21.16929 35963 ft 408 kts 305°
2026-05-06 12:53 45.77536 21.10541 35966 ft 408 kts 305°
2026-05-06 12:54 45.81052 21.04139 35959 ft 408 kts 305°
2026-05-06 12:54 45.84559 20.97738 35970 ft 408 kts 304°
2026-05-06 12:55 45.88065 20.91328 35957 ft 408 kts 304°
2026-05-06 12:55 45.91569 20.84911 35952 ft 408 kts 304°
2026-05-06 12:56 45.95045 20.78534 35946 ft 408 kts 304°
2026-05-06 12:56 45.98538 20.72107 35947 ft 408 kts 304°
2026-05-06 12:57 46.02020 20.65663 35940 ft 408 kts 304°
2026-05-06 12:57 46.05505 20.59224 35942 ft 407 kts 304°
2026-05-06 12:58 46.08979 20.52774 35940 ft 407 kts 304°
2026-05-06 12:58 46.12448 20.46321 35939 ft 407 kts 304°
2026-05-06 12:59 46.15895 20.39898 35932 ft 407 kts 304°
2026-05-06 12:59 46.19386 20.33437 35940 ft 408 kts 304°
2026-05-06 13:00 46.22872 20.26961 35930 ft 408 kts 303°
2026-05-06 13:00 46.26352 20.20477 35931 ft 408 kts 303°
2026-05-06 13:01 46.29824 20.13989 35931 ft 408 kts 303°
2026-05-06 13:01 46.33289 20.07495 35925 ft 408 kts 303°
2026-05-06 13:02 46.36759 20.00979 35925 ft 408 kts 303°
2026-05-06 13:02 46.40216 19.94474 35920 ft 408 kts 303°
2026-05-06 13:03 46.43658 19.87998 35919 ft 408 kts 303°
2026-05-06 13:03 46.47109 19.81475 35918 ft 408 kts 303°
2026-05-06 13:04 46.50566 19.74921 35920 ft 410 kts 303°
2026-05-06 13:04 46.54038 19.68333 35919 ft 410 kts 303°
2026-05-06 13:05 46.57500 19.61732 35918 ft 411 kts 303°
2026-05-06 13:05 46.60938 19.55166 35915 ft 411 kts 303°
2026-05-06 13:06 46.64400 19.48550 35909 ft 411 kts 303°
2026-05-06 13:06 46.67863 19.41930 35909 ft 411 kts 303°
2026-05-06 13:07 46.71322 19.35265 35910 ft 412 kts 303°
2026-05-06 13:07 46.74777 19.28589 35906 ft 413 kts 303°
2026-05-06 13:08 46.78241 19.21900 35901 ft 413 kts 303°
2026-05-06 13:08 46.81694 19.15211 35913 ft 413 kts 303°
2026-05-06 13:09 46.85134 19.08542 35907 ft 414 kts 303°
2026-05-06 13:09 46.88598 19.01803 35906 ft 415 kts 303°
2026-05-06 13:10 46.91478 18.96189 35901 ft 415 kts 302°
2026-05-06 13:10 46.94937 18.89436 35901 ft 415 kts 302°
2026-05-06 13:11 46.98396 18.82666 35895 ft 415 kts 302°
2026-05-06 13:11 47.01845 18.75903 35903 ft 414 kts 302°
2026-05-06 13:12 47.05284 18.69137 35895 ft 413 kts 302°
2026-05-06 13:12 47.08724 18.62363 35897 ft 413 kts 302°
2026-05-06 13:13 47.12129 18.55628 35897 ft 413 kts 302°
2026-05-06 13:13 47.15556 18.48828 35900 ft 414 kts 302°
2026-05-06 13:14 47.18985 18.42010 35893 ft 415 kts 302°
2026-05-06 13:14 47.22424 18.35177 35891 ft 415 kts 302°
2026-05-06 13:15 47.25851 18.28327 35888 ft 415 kts 302°
2026-05-06 13:15 47.29273 18.21465 35884 ft 415 kts 302°
2026-05-06 13:16 47.32701 18.14598 35879 ft 415 kts 302°
2026-05-06 13:16 47.36095 18.07764 35888 ft 414 kts 302°
2026-05-06 13:17 47.39502 18.00903 35869 ft 414 kts 302°
2026-05-06 13:17 47.42899 17.94028 35866 ft 414 kts 302°
2026-05-06 13:18 47.46290 17.87136 35870 ft 414 kts 302°
2026-05-06 13:18 47.49679 17.80234 35844 ft 414 kts 301°
2026-05-06 13:19 47.53066 17.73330 35847 ft 415 kts 301°
2026-05-06 13:19 47.56457 17.66409 35847 ft 415 kts 301°
2026-05-06 13:20 47.59840 17.59478 35845 ft 415 kts 301°
2026-05-06 13:20 47.63215 17.52527 35842 ft 415 kts 301°
2026-05-06 13:21 47.66596 17.45587 35865 ft 415 kts 301°
2026-05-06 13:21 47.69979 17.38618 35837 ft 416 kts 300°
2026-05-06 13:22 47.73341 17.31677 35832 ft 416 kts 300°
2026-05-06 13:22 47.76710 17.24685 35824 ft 416 kts 300°
2026-05-06 13:23 47.80079 17.17683 35823 ft 416 kts 300°
2026-05-06 13:23 47.83292 17.10558 35825 ft 411 kts 292°
2026-05-06 13:24 47.85631 17.02827 35821 ft 408 kts 288°
2026-05-06 13:24 47.87877 16.95057 35814 ft 409 kts 289°
2026-05-06 13:25 47.90133 16.87290 35804 ft 409 kts 289°
2026-05-06 13:25 47.92395 16.79517 35795 ft 408 kts 288°
2026-05-06 13:26 47.94644 16.71736 35796 ft 408 kts 288°
2026-05-06 13:26 47.96891 16.63961 35793 ft 408 kts 288°
2026-05-06 13:27 47.99131 16.56164 35788 ft 408 kts 288°
2026-05-06 13:27 48.01349 16.48425 35786 ft 408 kts 288°
2026-05-06 13:28 48.03573 16.40632 35781 ft 407 kts 288°
2026-05-06 13:28 48.05789 16.32833 35788 ft 408 kts 288°
2026-05-06 13:29 48.08013 16.24995 35778 ft 409 kts 287°
2026-05-06 13:29 48.10229 16.17150 35768 ft 409 kts 288°
2026-05-06 13:30 48.12444 16.09304 35767 ft 409 kts 288°
2026-05-06 13:30 48.14652 16.01464 35760 ft 409 kts 288°
2026-05-06 13:31 48.16853 15.93602 35768 ft 410 kts 287°
2026-05-06 13:31 48.19056 15.85710 35755 ft 410 kts 287°
2026-05-06 13:32 48.21239 15.77871 35755 ft 410 kts 287°
2026-05-06 13:32 48.23429 15.69966 35758 ft 410 kts 287°
2026-05-06 13:33 48.25614 15.62060 35755 ft 410 kts 287°
2026-05-06 13:33 48.27798 15.54141 35763 ft 412 kts 286°
2026-05-06 13:34 48.29980 15.46191 35749 ft 412 kts 286°
2026-05-06 13:34 48.32164 15.38222 35754 ft 412 kts 286°
2026-05-06 13:35 48.34341 15.30243 35739 ft 412 kts 286°
2026-05-06 13:35 48.36510 15.22264 35746 ft 412 kts 286°
2026-05-06 13:36 48.38672 15.14274 35754 ft 413 kts 286°
2026-05-06 13:36 48.40839 15.06261 35754 ft 413 kts 286°
2026-05-06 13:37 48.43002 14.98237 35749 ft 413 kts 286°
2026-05-06 13:37 48.45140 14.90263 35753 ft 413 kts 285°
2026-05-06 13:38 48.47289 14.82222 35788 ft 413 kts 285°
2026-05-06 13:38 48.49428 14.74179 35763 ft 413 kts 285°
2026-05-06 13:39 48.51564 14.66130 35757 ft 413 kts 285°
2026-05-06 13:39 48.53695 14.58073 35756 ft 413 kts 285°
2026-05-06 13:40 48.55802 14.50072 35755 ft 413 kts 285°
2026-05-06 13:40 48.57918 14.42017 35774 ft 413 kts 285°
2026-05-06 13:41 48.60036 14.33927 35758 ft 414 kts 285°
2026-05-06 13:41 48.62139 14.25823 35755 ft 414 kts 284°
2026-05-06 13:42 48.64243 14.17710 35750 ft 414 kts 284°
2026-05-06 13:42 48.66344 14.09603 35752 ft 415 kts 285°
2026-05-06 13:43 48.68453 14.01439 35768 ft 417 kts 285°
2026-05-06 13:43 48.70564 13.93246 35755 ft 418 kts 285°
2026-05-06 13:44 48.72657 13.85050 35751 ft 417 kts 284°
2026-05-06 13:44 48.74755 13.76841 35750 ft 417 kts 285°
2026-05-06 13:45 48.76817 13.68626 35743 ft 416 kts 284°
2026-05-06 13:45 48.79773 13.56277 35764 ft 418 kts 283°
2026-05-06 13:46 48.81737 13.47992 35750 ft 418 kts 283°
2026-05-06 13:46 48.83713 13.39699 35750 ft 418 kts 283°
2026-05-06 13:47 48.85682 13.31405 35750 ft 418 kts 283°
2026-05-06 13:47 48.87642 13.23097 35773 ft 418 kts 283°
2026-05-06 13:48 48.89613 13.14755 35753 ft 419 kts 283°
2026-05-06 13:48 48.91560 13.06453 35744 ft 419 kts 283°
2026-05-06 13:49 48.93509 12.98100 35752 ft 419 kts 283°
2026-05-06 13:49 48.95452 12.89736 35746 ft 419 kts 283°
2026-05-06 13:50 48.97385 12.81382 35750 ft 419 kts 283°
2026-05-06 13:50 48.99314 12.73008 35746 ft 419 kts 283°
2026-05-06 13:51 49.01240 12.64617 35748 ft 419 kts 283°
2026-05-06 13:51 49.03160 12.56227 35750 ft 419 kts 283°
2026-05-06 13:52 49.05058 12.47890 35751 ft 419 kts 283°
2026-05-06 13:52 49.06964 12.39484 35765 ft 420 kts 283°
2026-05-06 13:53 49.08871 12.31060 35767 ft 420 kts 283°
2026-05-06 13:53 49.10772 12.22613 35763 ft 421 kts 283°
2026-05-06 13:54 49.12667 12.14155 35748 ft 421 kts 283°
2026-05-06 13:54 49.14233 12.07124 35760 ft 421 kts 283°
2026-05-06 13:55 49.16118 11.98657 35779 ft 422 kts 283°
2026-05-06 13:55 49.18311 11.88764 35764 ft 423 kts 283°
2026-05-06 13:56 49.19886 11.81625 35759 ft 423 kts 283°
2026-05-06 13:56 49.21751 11.73142 35757 ft 423 kts 282°
2026-05-06 13:57 49.23619 11.64604 35759 ft 423 kts 282°
2026-05-06 13:57 49.25484 11.56052 35764 ft 424 kts 282°
2026-05-06 13:58 49.27345 11.47480 35759 ft 424 kts 282°
2026-05-06 13:58 49.29201 11.38898 35750 ft 424 kts 282°
2026-05-06 13:59 49.31048 11.30301 35747 ft 424 kts 282°
2026-05-06 13:59 49.32875 11.21752 35753 ft 424 kts 282°
2026-05-06 14:00 49.34720 11.13124 35768 ft 428 kts 282°
2026-05-06 14:00 49.36574 11.04423 35763 ft 429 kts 282°
2026-05-06 14:01 49.38424 10.95718 35759 ft 430 kts 283°
2026-05-06 14:01 49.40949 10.87304 35761 ft 435 kts 291°
2026-05-06 14:02 49.43671 10.78998 35771 ft 435 kts 291°
2026-05-06 14:02 49.46355 10.70725 35778 ft 435 kts 291°
2026-05-06 14:03 49.49051 10.62371 35757 ft 435 kts 291°
2026-05-06 14:03 49.51734 10.54028 35752 ft 435 kts 291°
2026-05-06 14:04 49.54412 10.45668 35750 ft 435 kts 290°
2026-05-06 14:04 49.57083 10.37306 35751 ft 435 kts 290°